Hourly Weather Barra de Sao Francisco

Today, 21 April, Wednesday

Time Temperature Precipitation Wind Pressure Humidity
00:00 +20°C° 0.3 mm 0 mps 736 mmHg 96%
01:00 +20°C° 0.1 mm 0 mps 736 mmHg 96%
02:00 +20°C° 0.1 mm 0 mps 736 mmHg 96%
03:00 +20°C° 0.1 mm 0 mps 735 mmHg 97%
04:00 +20°C° 0 mm 0 mps 736 mmHg 97%
05:00 +20°C° 0 mm 0 mps 736 mmHg 96%
06:00 +20°C° 0 mm 0 mps 736 mmHg 96%
07:00 +21°C° 0 mm 0 mps 736 mmHg 91%
08:00 +23°C° 0 mm 0 mps 737 mmHg 85%
09:00 +24°C° 0 mm 0 mps 737 mmHg 79%
10:00 +28°C° 0.1 mm 1 mps 737 mmHg 72%
11:00 +29°C° 0.1 mm 1 mps 736 mmHg 65%
12:00 +30°C° 0.1 mm 2 mps 736 mmHg 58%
13:00 +30°C° 0.1 mm 2 mps 736 mmHg 56%
14:00 +31°C° 0.1 mm 2 mps 735 mmHg 54%
15:00 +31°C° 0.1 mm 2 mps 735 mmHg 52%
16:00 +29°C° 0 mm 2 mps 735 mmHg 57%
17:00 +27°C° 0 mm 1 mps 735 mmHg 63%
18:00 +26°C° 0 mm 1 mps 735 mmHg 69%
19:00 +25°C° 0 mm 1 mps 736 mmHg 70%
20:00 +22°C° 0 mm 0 mps 736 mmHg 71%
21:00 +22°C° 0 mm 0 mps 736 mmHg 72%
22:00 +21°C° 0 mm 0 mps 737 mmHg 75%
23:00 +23°C° 0 mm 1 mps 737 mmHg 78%

Tomorrow, 22 April, Thursday

Time Temperature Precipitation Wind Pressure Humidity
00:00 +22°C° 0 mm 1 mps 737 mmHg 80%
01:00 +22°C° 0 mm 1 mps 737 mmHg 83%
02:00 +19°C° 0 mm 0 mps 736 mmHg 86%
03:00 +19°C° 0 mm 0 mps 736 mmHg 89%
04:00 +19°C° 0 mm 0 mps 736 mmHg 90%
05:00 +19°C° 0 mm 0 mps 737 mmHg 91%
06:00 +19°C° 0 mm 0 mps 737 mmHg 92%
07:00 +21°C° 0 mm 0 mps 737 mmHg 85%
08:00 +23°C° 0 mm 0 mps 738 mmHg 78%
09:00 +25°C° 0 mm 0 mps 738 mmHg 71%
10:00 +26°C° 0 mm 0 mps 738 mmHg 66%
11:00 +27°C° 0 mm 0 mps 738 mmHg 60%
12:00 +28°C° 0 mm 0 mps 737 mmHg 55%
13:00 +30°C° 0.1 mm 1 mps 737 mmHg 55%
14:00 +30°C° 0.1 mm 1 mps 736 mmHg 54%
15:00 +30°C° 0.1 mm 1 mps 736 mmHg 54%
16:00 +28°C° 0.3 mm 1 mps 736 mmHg 62%
17:00 +26°C° 0.3 mm 2 mps 736 mmHg 70%
18:00 +24°C° 0.3 mm 2 mps 737 mmHg 79%
19:00 +24°C° 0.1 mm 2 mps 737 mmHg 84%
20:00 +23°C° 0.1 mm 2 mps 738 mmHg 90%
21:00 +21°C° 0.1 mm 2 mps 738 mmHg 96%
22:00 +22°C° 0 mm 1 mps 738 mmHg 96%
23:00 +21°C° 0 mm 1 mps 738 mmHg 96%

Day after tomorrow, 23 April, Friday

Time Temperature Precipitation Wind Pressure Humidity
00:00 +21°C° 0 mm 1 mps 739 mmHg 96%
01:00 +21°C° 0 mm 1 mps 738 mmHg 96%
02:00 +21°C° 0 mm 1 mps 738 mmHg 95%
03:00 +19°C° 0 mm 0 mps 738 mmHg 95%
04:00 +19°C° 0 mm 0 mps 738 mmHg 95%
05:00 +19°C° 0 mm 0 mps 739 mmHg 95%
06:00 +19°C° 0 mm 0 mps 739 mmHg 94%
07:00 +20°C° 0 mm 0 mps 739 mmHg 91%
08:00 +21°C° 0 mm 0 mps 740 mmHg 87%
09:00 +24°C° 0 mm 1 mps 740 mmHg 83%
10:00 +25°C° 0 mm 1 mps 740 mmHg 78%
11:00 +26°C° 0 mm 1 mps 739 mmHg 73%
12:00 +27°C° 0 mm 1 mps 739 mmHg 67%
13:00 +27°C° 0 mm 1 mps 738 mmHg 65%
14:00 +28°C° 0 mm 1 mps 737 mmHg 62%
15:00 +29°C° 0 mm 1 mps 737 mmHg 59%
16:00 +27°C° 0 mm 1 mps 737 mmHg 63%
17:00 +26°C° 0 mm 1 mps 737 mmHg 66%
18:00 +25°C° 0 mm 1 mps 737 mmHg 70%
19:00 +25°C° 0 mm 1 mps 737 mmHg 75%
20:00 +24°C° 0 mm 1 mps 738 mmHg 79%
21:00 +23°C° 0 mm 2 mps 738 mmHg 84%
22:00 +23°C° 0 mm 1 mps 738 mmHg 88%
23:00 +22°C° 0 mm 1 mps 738 mmHg 92%

24 April, Saturday

Time Temperature Precipitation Wind Pressure Humidity
00:00 +21°C° 0 mm 1 mps 738 mmHg 96%
01:00 +21°C° 0 mm 1 mps 738 mmHg 96%
02:00 +19°C° 0 mm 0 mps 737 mmHg 97%
03:00 +19°C° 0 mm 0 mps 737 mmHg 97%
04:00 +19°C° 0 mm 0 mps 737 mmHg 96%
05:00 +19°C° 0 mm 0 mps 738 mmHg 95%
06:00 +20°C° 0 mm 0 mps 738 mmHg 93%
07:00 +21°C° 0 mm 0 mps 738 mmHg 88%
08:00 +24°C° 0 mm 1 mps 739 mmHg 82%
09:00 +25°C° 0 mm 1 mps 739 mmHg 76%
10:00 +26°C° 0 mm 1 mps 739 mmHg 72%
11:00 +27°C° 0 mm 1 mps 738 mmHg 67%
12:00 +29°C° 0 mm 1 mps 738 mmHg 63%
13:00 +29°C° 0 mm 1 mps 737 mmHg 60%
14:00 +30°C° 0 mm 1 mps 736 mmHg 57%
15:00 +30°C° 0 mm 1 mps 736 mmHg 55%
16:00 +29°C° 0 mm 1 mps 736 mmHg 61%
17:00 +27°C° 0 mm 1 mps 736 mmHg 68%
18:00 +23°C° 0 mm 0 mps 736 mmHg 74%
19:00 +25°C° 0 mm 1 mps 736 mmHg 79%
20:00 +24°C° 0 mm 1 mps 736 mmHg 84%
21:00 +23°C° 0 mm 1 mps 737 mmHg 89%
22:00 +23°C° 0 mm 1 mps 737 mmHg 92%
23:00 +22°C° 0 mm 1 mps 737 mmHg 94%

25 April, Sunday

Time Temperature Precipitation Wind Pressure Humidity
00:00 +20°C° 0 mm 0 mps 737 mmHg 97%
01:00 +20°C° 0 mm 0 mps 737 mmHg 96%
02:00 +20°C° 0 mm 0 mps 736 mmHg 96%
03:00 +20°C° 0 mm 0 mps 736 mmHg 96%
04:00 +20°C° 0 mm 0 mps 737 mmHg 96%
05:00 +20°C° 0 mm 0 mps 737 mmHg 95%
06:00 +20°C° 0 mm 0 mps 737 mmHg 95%
07:00 +22°C° 0 mm 0 mps 737 mmHg 87%
08:00 +26°C° 0 mm 1 mps 738 mmHg 79%
09:00 +27°C° 0 mm 1 mps 738 mmHg 71%
10:00 +29°C° 0 mm 1 mps 737 mmHg 65%
11:00 +30°C° 0 mm 1 mps 737 mmHg 59%
12:00 +32°C° 0 mm 2 mps 736 mmHg 54%
13:00 +32°C° 0 mm 2 mps 736 mmHg 52%
14:00 +32°C° 0 mm 2 mps 735 mmHg 50%
15:00 +33°C° 0 mm 1 mps 735 mmHg 48%
16:00 +31°C° 0 mm 1 mps 735 mmHg 54%
17:00 +29°C° 0 mm 1 mps 735 mmHg 60%
18:00 +27°C° 0 mm 1 mps 735 mmHg 66%
19:00 +27°C° 0 mm 1 mps 735 mmHg 69%
20:00 +26°C° 0 mm 1 mps 736 mmHg 73%
21:00 +23°C° 0 mm 0 mps 736 mmHg 77%
22:00 +24°C° 0 mm 1 mps 736 mmHg 81%
23:00 +24°C° 0 mm 1 mps 736 mmHg 84%

26 April, Monday

Time Temperature Precipitation Wind Pressure Humidity
00:00 +24°C° 0 mm 1 mps 736 mmHg 87%
01:00 +23°C° 0 mm 1 mps 736 mmHg 89%
02:00 +23°C° 0 mm 1 mps 736 mmHg 90%
03:00 +21°C° 0 mm 0 mps 735 mmHg 91%
04:00 +21°C° 0.1 mm 0 mps 736 mmHg 93%
05:00 +23°C° 0.1 mm 1 mps 736 mmHg 95%
06:00 +22°C° 0.1 mm 1 mps 736 mmHg 97%
07:00 +24°C° 0 mm 1 mps 736 mmHg 89%
08:00 +26°C° 0 mm 1 mps 737 mmHg 81%
09:00 +28°C° 0 mm 1 mps 737 mmHg 74%
10:00 +29°C° 0 mm 2 mps 737 mmHg 67%
11:00 +31°C° 0 mm 2 mps 736 mmHg 60%
12:00 +32°C° 0 mm 2 mps 736 mmHg 53%
13:00 +32°C° 0 mm 2 mps 736 mmHg 52%
14:00 +34°C° 0 mm 2 mps 735 mmHg 52%
15:00 +33°C° 0 mm 1 mps 734 mmHg 51%
16:00 +31°C° 0 mm 1 mps 735 mmHg 56%
17:00 +30°C° 0 mm 1 mps 735 mmHg 62%
18:00 +28°C° 0 mm 1 mps 735 mmHg 67%
19:00 +27°C° 0.3 mm 1 mps 736 mmHg 72%
20:00 +26°C° 0.3 mm 1 mps 736 mmHg 77%
21:00 +25°C° 0.3 mm 1 mps 737 mmHg 82%
22:00 +25°C° 0.1 mm 1 mps 737 mmHg 84%
23:00 +25°C° 0.1 mm 1 mps 737 mmHg 86%
Show more